Home > Weather > St. Catharines > Past weeks

Flag for Canada Past Weather in St. Catharines, Ontario, Canada — Yesterday and Last 2 Weeks

Now
73 °F

Mild.


Feels Like: 76 °F
Forecast: 62 / 81 °F
Wind: 3 mph from Northwest

Location: Burlington Piers

Current Time: May 28, 2016 at 1:59:20 AM

Latest Report: May 28, 2016 at 1:00 AM


Visibility: N/A

Pressure: 29.99 "Hg

Humidity: 65%

Dew Point: 61 °F

Location of St. CatharinesLocation

Past Weather in St. Catharines — Graph

°F

St. Catharines Temperature Yesterday

Maximum temperature yesterday: 85 °F (at 6:00 PM)
Minimum temperature yesterday: 56 °F (at 12:00 AM)
Average temperature yesterday: 72 °F

High & Low Weather Summary for the Past Weeks

 TemperatureHumidityPressure
High85 °F (May 27, 6:00 PM)98% (May 26, 6:00 PM)30.29 "Hg (May 26, 6:00 PM)
Low38 °F (May 16, 2:00 AM)16% (May 24, 7:00 PM)29.47 "Hg (May 14, 11:00 AM)
Average58 °F60%30.00 "Hg
* Reported May 13 12:00 AM — May 28 12:00 AM, St. Catharines, Weather by CustomWeather, © 2016

Note: Actual official high and low records may vary slightly from our data, if they occured in-between our weather recording intervals... More about our weather records

Advertising

St. Catharines Weather History for the Previous 24 Hours

Scroll right to see more
 ConditionsComfort  
Time TempWeatherWind HumidityBarometerVisibility
12:00 AM
Sat, May 28
74 °FMild.5 mph65%29.98 "HgN/A
11:00 PM
Fri, May 27
76 °FMild.3 mph57%29.97 "HgN/A
10:00 PM76 °FMild.2 mph58%29.97 "HgN/A
9:00 PM80 °FWarm.7 mph50%29.95 "HgN/A
8:00 PM80 °FWarm.7 mph50%29.93 "HgN/A
7:00 PM82 °FWarm.7 mph46%29.92 "HgN/A
6:00 PM85 °FWarm.9 mph41%29.92 "HgN/A
5:00 PM85 °FWarm.7 mph43%29.92 "HgN/A
4:00 PM84 °FWarm.8 mph45%29.93 "HgN/A
3:00 PM83 °FWarm.9 mph49%29.93 "HgN/A
2:00 PM68 °FMild.5 mph82%29.95 "HgN/A
1:00 PM73 °FMild.10 mph69%29.95 "HgN/A
12:00 PM75 °FMild.7 mph69%29.94 "HgN/A
11:00 AM74 °FMild.3 mph70%29.96 "HgN/A
10:00 AM76 °FMild.5 mph69%29.94 "HgN/A
9:00 AM72 °FMild.8 mph78%29.94 "HgN/A
8:00 AM71 °FMild.5 mph80%29.95 "HgN/A
7:00 AM69 °FMild.5 mph84%29.95 "HgN/A
6:00 AM68 °FMild.5 mph84%29.93 "HgN/A
5:00 AM68 °FMild.2 mph82%29.92 "HgN/A
4:00 AM58 °FCool.1 mph89%29.93 "HgN/A
3:00 AM59 °FCool.5 mph88%29.93 "HgN/A
2:00 AM57 °FCool.2 mph89%29.93 "HgN/A
1:00 AM57 °FCool.2 mph89%29.95 "HgN/A
Weather by CustomWeather, © 2016

See weather overviewHow to use our weather pages